Home   Weather   Corvallis   Past weeks

Flag for USA Past Weather in Corvallis, Oregon, USA — Yesterday and Last 2 Weeks

Now
48 °F

Cool.


Feels Like: 42 °F
Forecast: 39 / 47 °F
Wind: 16 mph from South

Location: Corvallis Municipal

Current Time: Dec 4, 2016 at 6:29:05 am

Latest Report: Dec 4, 2016 at 5:55 am


Visibility: 10 mi

Pressure: 30.05 "Hg

Humidity: 82%

Dew Point: 43 °F

Location of CorvallisLocation

Past Weather in Corvallis — Graph

°F

Corvallis Temperature Yesterday

Maximum temperature yesterday: 52 °F (at 11:55 am)
Minimum temperature yesterday: 43 °F (at 2:15 am)
Average temperature yesterday: 46 °F

High & Low Weather Summary for the Past Weeks

 TemperatureHumidityPressure
High63 °F (Nov 19, 1:35 pm)94% (Nov 19, 9:15 am)30.44 "Hg (Nov 19, 9:15 am)
Low37 °F (Dec 2, 1:35 am)55% (Nov 19, 2:35 pm)29.44 "Hg (Nov 26, 2:35 pm)
Average47 °F83%30.02 "Hg
* Reported Nov 19 5:15 am — Dec 4 5:15 am, Corvallis, Weather by CustomWeather, © 2016

Note: Actual official high and low records may vary slightly from our data, if they occured in-between our weather recording intervals... More about our weather records

Advertising

Corvallis Weather History for the Previous 24 Hours

Scroll right to see more
 ConditionsComfort  
Time TempWeatherWind HumidityBarometerVisibility
5:15 am
Sun, Dec 4
48 °FCool.17 mph82%30.07 "Hg5 mi
4:55 am46 °FCool.17 mph87%30.08 "Hg10 mi
4:35 am46 °FCool.17 mph87%30.08 "Hg10 mi
4:15 am46 °FCool.18 mph87%30.10 "Hg10 mi
3:55 am46 °FCool.17 mph87%30.10 "Hg10 mi
3:35 am46 °FCool.17 mph87%30.12 "Hg10 mi
3:15 am46 °FCool.13 mph87%30.13 "Hg10 mi
2:55 am46 °FCool.14 mph87%30.14 "Hg10 mi
2:35 am46 °FCool.15 mph87%30.15 "Hg10 mi
2:15 am46 °FCool.14 mph87%30.16 "Hg10 mi
1:55 am46 °FCool.13 mph87%30.17 "Hg10 mi
1:35 am46 °FCool.13 mph87%30.18 "Hg10 mi
1:15 am46 °FCool.14 mph87%30.19 "Hg10 mi
12:55 am46 °FCool.16 mph87%30.20 "Hg10 mi
12:35 am46 °FCool.13 mph87%30.21 "Hg10 mi
12:15 am46 °FCool.12 mph87%30.22 "Hg10 mi
11:55 pm
Sat, Dec 3
46 °FCool.12 mph87%30.23 "Hg10 mi
11:35 pm46 °FCool.13 mph87%30.22 "Hg10 mi
11:15 pm46 °FCool.14 mph87%30.24 "Hg10 mi
10:55 pm46 °FCool.12 mph87%30.24 "Hg10 mi
10:35 pm46 °FCool.12 mph87%30.25 "Hg10 mi
10:15 pm46 °FCool.9 mph87%30.27 "Hg10 mi
9:55 pm46 °FCool.9 mph87%30.26 "Hg10 mi
9:35 pm46 °FCool.12 mph87%30.29 "Hg10 mi
9:15 pm46 °FCool.9 mph87%30.29 "Hg10 mi
8:55 pm46 °FCool.8 mph87%30.30 "Hg10 mi
8:35 pm46 °FCool.10 mph87%30.30 "Hg10 mi
8:15 pm46 °FCool.12 mph87%30.29 "Hg10 mi
7:55 pm46 °FCool.9 mph87%30.30 "Hg10 mi
7:35 pm46 °FCool.8 mph87%30.31 "Hg10 mi
7:15 pm46 °FCool.6 mph87%30.32 "Hg10 mi
6:35 pm46 °FCool.No wind87%30.33 "Hg10 mi
6:15 pm46 °FCool.No wind87%30.33 "Hg10 mi
5:55 pm46 °FCool.No wind87%30.34 "Hg10 mi
5:35 pm46 °FCool.3 mph87%30.34 "Hg10 mi
5:15 pm46 °FCool.5 mph87%30.34 "Hg10 mi
4:55 pm48 °FCool.6 mph82%30.35 "Hg10 mi
4:35 pm48 °FCool.6 mph82%30.34 "Hg10 mi
4:15 pm48 °FCool.7 mph82%30.35 "Hg10 mi
3:55 pm48 °FCool.6 mph82%30.36 "Hg10 mi
3:35 pm50 °FCool.8 mph76%30.36 "Hg10 mi
3:15 pm52 °FCool.5 mph72%30.36 "Hg10 mi
2:55 pm52 °FCool.3 mph77%30.37 "Hg10 mi
2:35 pm52 °FCool.No wind72%30.38 "Hg10 mi
2:15 pm52 °FCool.3 mph77%30.40 "Hg9 mi
1:55 pm52 °FCool.3 mph72%30.40 "Hg10 mi
1:35 pm52 °FCool.No wind72%30.40 "Hg10 mi
1:15 pm52 °FCool.No wind77%30.39 "Hg10 mi
12:55 pm52 °FCool.5 mph77%30.39 "Hg10 mi
12:35 pm52 °FCool.6 mph77%30.40 "Hg10 mi
12:15 pm52 °FCool.10 mph82%30.39 "Hg10 mi
11:55 am52 °FCool.9 mph77%30.40 "Hg10 mi
11:35 am48 °FCool.8 mph87%30.42 "Hg10 mi
11:15 am48 °FCool.10 mph87%30.41 "Hg10 mi
10:55 am48 °FCool.9 mph87%30.41 "Hg10 mi
10:35 am46 °FCool.12 mph93%30.42 "Hg10 mi
10:15 am46 °FCool.3 mph93%30.43 "Hg10 mi
9:55 am43 °FQuite cool.3 mph93%30.44 "Hg10 mi
9:35 am43 °FQuite cool.No wind87%30.44 "Hg0 mi
9:15 am43 °FQuite cool.3 mph87%30.44 "Hg0 mi
8:55 am43 °FQuite cool.No wind87%30.42 "Hg0 mi
8:35 am43 °FQuite cool.No wind87%30.42 "Hg0 mi
8:15 am43 °FQuite cool.No wind87%30.41 "Hg0 mi
7:55 am43 °FQuite cool.3 mph87%30.41 "Hg1 mi
7:35 am43 °FQuite cool.3 mph81%30.41 "Hg10 mi
7:15 am43 °FQuite cool.No wind81%30.40 "Hg10 mi
6:55 am43 °FQuite cool.No wind87%30.38 "Hg10 mi
6:35 am43 °FQuite cool.7 mph81%30.38 "Hg10 mi
6:15 am43 °FQuite cool.6 mph87%30.38 "Hg10 mi
Weather by CustomWeather, © 2016

See weather overviewHow to use our weather pages